Regional Weather Roundup
Issued by NWS

Home | Current Version | Previous Version | Graphics & Text | Print | Product List | Glossary On
Versions: 1 2 3 4 5 6 7 8 9 10 11 12 13 14 15 16 17 18 19 20 21 22 23 24 25 26 27 28 29 30 31 32 33 34 35 36 37 38 39 40 41 42 43 44 45 46 47 48 49 50
000
ASUS45 KCYS 252310
RWRWY

WYOMING REGIONAL WEATHER ROUNDUP
NATIONAL WEATHER SERVICE CHEYENNE WY
400 PM MST THU DEC 25 2014

NOTE:  "FAIR" INDICATES FEW OR NO CLOUDS BELOW 12,000 FEET
WITH NO SIGNIFICANT WEATHER AND/OR OBSTRUCTIONS TO VISIBILITY.

WYZ001-260000-
YELLOWSTONE NATIONAL PARK

CITY           SKY/WX    TMP DP  RH WIND       PRES   REMARKS
LK YELLOWSTONE   N/A     15   9  76 CALM      29.73R
W YELLOWSTONE  NOT AVBL

$$
WYZ002>013-054>058-071-098>099-260000-
NORTHERN WYOMING

CITY           SKY/WX    TMP DP  RH WIND       PRES   REMARKS
JACKSON        CLOUDY    21  18  86 N24       29.66R WCI   4
CODY           CLOUDY    21  19  93 N12       29.84R WCI   9
GREYBULL       CLOUDY    26  17  68 NW25      29.81R WCI  11
WORLAND        LGT SNOW  24  18  77 N12       29.81R WCI  13
SHERIDAN       LGT SNOW  22  18  85 NW14      29.91R FOG     WCI   9
BUFFALO        MIX PCPN  20  17  88 N22G33    29.84R WCI   3
GILLETTE       LGT SNOW  20  18  92 N16       29.84R VSB 1   WCI   6
HULETT           N/A    N/A N/A N/A MISG        N/A
NEWCASTLE      FAIR      25  18  74 NW16G22   29.79R WCI  12

$$
WYZ014>020-022>026-101>103-260000-
CENTRAL WYOMING

CITY           SKY/WX    TMP DP  RH WIND       PRES   REMARKS
BIG PINEY      LGT SNOW  21  18  88 CALM      29.63R VSB 3/4
PINEDALE       CLOUDY    23  12  63 N6        29.61R WCI  16
DUBOIS         NOT AVBL
LANDER         SNOW      21  19  92 NE8       29.76R VSB 1/2 WCI  11
RIVERTON       LGT SNOW  22  16  78 N22G30    29.76R WCI   6
CASPER         MIX PCPN  21  16  81 NE24G32   29.74R WCI   4
DOUGLAS        LGT SNOW  23  19  85 N17       29.75R FOG     WCI   9

$$
WYZ021-027>030-104>119-260000-
SOUTHERN WYOMING

CITY           SKY/WX    TMP DP  RH WIND       PRES   REMARKS
EVANSTON       LGT SNOW  22  18  85 NW8       29.60R FOG     WCI  12
FORT BRIDGER   LGT SNOW  24  23  93 W14       29.61R WCI  12
ROCK SPRINGS   LGT SNOW  18  13  80 NE37G51   29.60R WCI  -3
DIXON          FLURRIES  26  21  82 NE15G21   29.56R WCI  13
RAWLINS        LGT SNOW  20  15  81 NE17G26   29.61R WCI   5
SARATOGA       LGT SNOW  25  23  93 W3        29.56R VSB 1
LARAMIE        SNOW      19  15  84 NE20G25   29.55R VSB 1/2 WCI   3
CHEYENNE       SNOW      22  18  85 NE15G26   29.61R VSB 1/2 WCI   9
TORRINGTON     LGT SNOW  27  22  81 N16       29.71R WCI  15
PINE BLUFFS    HVY SNOW  25  23  93 N17       29.65R VSB 1/4 WCI  11

$$


USA.gov is the U.S. government's official web portal to all federal, state and local government web resources and services.